#timestamp,LO_Frequency,Hit,StdDev 
1682301615.6,286046994.2,N
1682301635.4,286046996.3,N
1682301655.2,286046994.3,N
1682301675.1,286046994.5,N
1682301676.0,286046994.5,N
1682301695.8,286046992.2,Y
1682301715.7,286046986.3,P
1682301735.5,286046995.9,N
1682301755.3,286046993.5,N
1682301775.2,286046991.7,N
1682301795.9,286046992.6,N
1682301815.7,286046990.5,Y
1682301835.6,286047000.9,P
1682301855.4,286047002.8,N
1682301875.2,286047000.1,N
1682301895.1,286047000.5,N
1682301896.0,286047000.5,N
1682301915.8,286046998.3,N
1682301935.7,286047001.0,N
1682301955.5,286046998.4,N
1682301975.3,286046998.2,N
1682301995.2,286047000.4,N
1682302015.0,286047001.0,N
1682302015.9,286047001.0,N
1682302035.7,286047000.8,N
1682302055.6,286046998.1,N
1682302075.4,286047000.7,N
1682302095.3,286046998.2,N
1682302115.1,286046999.3,N
1682302135.8,286046998.4,N
1682302155.7,286047002.6,N
1682302175.5,286047001.4,N
1682302195.4,286047002.6,N
1682302215.2,286047002.5,N
1682302235.0,286047002.1,N
1682302235.9,286047002.1,N
1682302255.8,286047001.9,N
1682302275.6,286047002.1,N
1682302295.4,286047004.4,N
1682302315.3,286047003.7,N
1682302335.1,286047005.7,N
1682302355.9,286047005.5,N
1682302375.7,286047007.0,Y
1682302395.5,286047006.3,P
1682302415.4,286047005.3,N
1682302435.2,286047004.6,N
1682302455.0,286047005.3,N
1682302455.9,286047005.3,N
1682302475.8,286047006.0,Y
1682302495.6,286047000.4,P
1682302515.5,286046998.3,N
1682302535.3,286046998.2,N
1682302555.1,286046998.1,N
1682302575.9,286047000.7,N
1682302595.7,286047000.0,N
1682302615.5,286047000.0,N
1682302635.4,286047002.7,N
1682302655.2,286047002.8,N
1682302675.1,286047002.8,N
1682302676.0,286047002.8,N
1682302695.8,286047002.3,N
1682302715.6,286047000.8,N
1682302735.5,286046999.3,N
1682302755.3,286046999.4,N
1682302775.1,286046999.1,N
1682302795.9,286046999.3,N
1682302815.7,286047001.1,N
1682302835.6,286046998.6,N
1682302855.4,286046998.1,N
1682302875.2,286047001.0,N
1682302895.1,286047002.8,N
1682302896.0,286047002.8,N
1682302915.8,286046998.2,N
1682302935.6,286046999.8,N
1682302955.5,286047001.8,N
1682302975.3,286047000.1,N
1682302995.1,286047002.4,N
1682303015.9,286046999.8,N
1682303035.7,286046999.9,N
1682303055.6,286047004.4,N
1682303075.4,286047002.6,N
1682303095.2,286047002.3,N
1682303115.1,286047000.7,N
1682303116.0,286047000.7,N
1682303135.8,286047001.0,N
1682303155.6,286047000.3,N
1682303175.5,286047002.8,N
1682303195.3,286047000.0,N
1682303215.2,286047000.4,N
1682303235.9,286046999.7,N
1682303255.7,286047002.6,N
1682303275.6,286046999.8,N
1682303295.4,286047001.5,N
1682303315.3,286047004.3,N
1682303335.1,286047001.8,N
1682303336.0,286047001.8,N
1682303355.8,286047002.1,N
1682303375.7,286047002.5,N
1682303395.5,286047002.3,N
1682303415.3,286047000.4,N
1682303435.2,286047000.1,N
1682303455.0,286047002.7,N
1682303455.9,286047002.7,N
1682303475.8,286047002.3,N
1682303495.6,286046999.8,N
1682303515.4,286047001.8,N
1682303535.3,286047002.4,N
1682303555.1,286047002.4,N
1682303575.8,286046999.8,N
1682303595.7,286046998.5,N
1682303615.5,286047000.5,N
1682303635.4,286047001.1,N
1682303655.2,286046999.8,N
1682303675.0,286046999.8,N
1682303675.9,286046999.8,N
1682303695.8,286047002.1,N
1682303715.6,286047011.9,Y
1682303735.4,286047001.5,P
1682303755.3,286047003.0,P
1682303775.1,286047004.0,P
1682303795.9,286047001.8,N
1682303815.7,286047001.8,N
1682303835.5,286047002.2,N
1682303855.4,286047002.5,N
1682303875.2,286047002.8,Y
1682303895.0,286046999.0,P
1682303895.9,286046999.0,N
1682303915.8,286047000.7,N
1682303935.6,286047000.5,N
1682303955.5,286047000.3,N
1682303975.3,286047002.7,N
1682303995.1,286047002.7,N
1682304015.9,286047000.1,N
1682304035.7,286047001.0,N
1682304055.5,286047000.5,N
1682304075.4,286046998.2,N
1682304095.2,286046998.3,N
1682304115.1,286046998.5,N
1682304116.0,286046998.5,N
1682304135.8,286047001.9,N
1682304155.6,286047005.8,Y
1682304175.5,286047006.9,P
1682304195.3,286047009.0,N
1682304215.1,286047012.4,P
1682304235.9,286047015.0,Y
1682304255.7,286047009.1,P
1682304275.6,286047008.0,P
1682304295.4,286047007.7,P
1682304315.2,286047009.8,Y
1682304335.1,286047003.6,P
1682304336.0,286047003.6,N
1682304355.8,286047004.7,N
1682304375.6,286047007.1,Y
1682304395.5,286047000.4,P
1682304415.3,286047000.1,N
1682304435.2,286047002.1,N
1682304455.9,286047002.6,N
1682304475.7,286047004.0,N
1682304495.6,286047001.8,N
1682304515.4,286047002.6,N
1682304535.2,286047004.4,N
1682304555.1,286047004.1,N
1682304556.0,286047004.1,N
1682304575.8,286047005.1,Y
1682304595.7,286047001.4,P
1682304615.5,286047005.4,P
1682304635.3,286047004.8,N
1682304655.2,286047007.0,Y
1682304675.0,286047001.5,P
1682304675.9,286047001.5,N
1682304695.8,286047002.6,N
1682304715.6,286047002.3,N
1682304735.4,286047002.2,N
1682304755.3,286047001.5,N
1682304775.1,286047001.4,N
1682304795.8,286047002.4,Y
1682304815.7,286046998.7,P
1682304835.5,286046996.7,N
1682304855.4,286046997.3,N
1682304875.2,286046998.7,N
1682304895.0,286047001.0,N
1682304895.9,286047001.0,N
1682304915.8,286047001.0,N
1682304935.6,286047000.7,N
1682304955.4,286047002.3,N
1682304975.3,286047002.3,N
1682304995.1,286047002.7,N
1682305015.9,286047002.0,N
1682305035.7,286047003.6,N
1682305055.5,286047005.9,N
1682305075.4,286047004.7,N
1682305095.2,286047003.3,N
1682305115.0,286047003.6,N
1682305115.9,286047003.6,N
1682305135.8,286047001.7,N
1682305155.6,286047001.7,N
1682305205.5,286047003.1,E
